GW1987 Weather Reports


Display with metric or nautical units.
time (UTC)temp
F
wind
direction
speed
MPH
gust
MPH
rain 1hr
in
rain 24hr
in
rain mn
in
humidity
%
barometer
mb
20260503212515 74 360 17.0 28.0 0.00 0.00 0.00 6 921.1
20260503212015 74 360 15.0 28.0 0.00 0.00 0.00 6 921.3
20260503211541 74 360 14.0 22.0 0.00 0.00 0.00 6 921.6
20260503211013 74 360 5.0 18.0 0.00 0.00 0.00 6 921.7
20260503210515 75 360 11.0 18.0 0.00 0.00 0.00 6 921.6
20260503210037 74 360 7.0 17.0 0.00 0.00 0.00 7 921.7
20260503205512 74 360 11.0 17.0 0.00 0.00 0.00 6 921.8
20260503205014 73 360 8.0 22.0 0.00 0.00 0.00 7 921.8
20260503204546 73 360 12.0 22.0 0.00 0.00 0.00 7 921.9
20260503204013 73 360 14.0 22.0 0.00 0.00 0.00 6 921.9
20260503203515 72 360 13.0 22.0 0.00 0.00 0.00 6 921.9
20260503203045 72 360 9.0 22.0 0.00 0.00 0.00 5 922.1
20260503202514 72 360 13.0 19.0 0.00 0.00 0.00 6 922.2
20260503202014 72 360 8.0 16.0 0.00 0.00 0.00 7 922.2
20260503201544 72 360 9.0 21.0 0.00 0.00 0.00 7 922.3
20260503201018 73 360 11.0 22.0 0.00 0.00 0.00 7 922.2
20260503200514 72 360 14.0 23.0 0.00 0.00 0.00 6 922.2
20260503200049 72 360 12.0 23.0 0.00 0.00 0.00 7 922.3
20260503195514 71 360 11.0 24.0 0.00 0.00 0.00 7 922.4
20260503195014 72 360 17.0 24.0 0.00 0.00 0.00 6 922.4
20260503194553 71 360 9.0 25.0 0.00 0.00 0.00 8 922.5
20260503194015 71 360 17.0 25.0 0.00 0.00 0.00 8 922.5
20260503193514 70 360 13.0 21.0 0.00 0.00 0.00 8 922.9
20260503193050 70 360 13.0 22.0 0.00 0.00 0.00 8 923.0
20260503192515 71 360 12.0 23.0 0.00 0.00 0.00 8 923.1
20260503192014 71 360 17.0 23.0 0.00 0.00 0.00 7 923.2
20260503191544 70 360 16.0 23.0 0.00 0.00 0.00 8 923.3
20260503191013 70 360 9.0 21.0 0.00 0.00 0.00 8 923.4
20260503190514 69 360 12.0 16.0 0.00 0.00 0.00 9 923.3
20260503190038 69 360 10.0 24.0 0.00 0.00 0.00 9 923.4
20260503185515 69 360 14.0 24.0 0.00 0.00 0.00 9 923.4
20260503185015 69 360 15.0 21.0 0.00 0.00 0.00 10 923.3
20260503184603 68 360 11.0 17.0 0.00 0.00 0.00 10 923.3
20260503184015 69 360 10.0 18.0 0.00 0.00 0.00 8 923.6
20260503183515 69 360 10.0 19.0 0.00 0.00 0.00 9 923.4
20260503183059 68 360 10.0 16.0 0.00 0.00 0.00 10 923.5
20260503182512 68 360 6.0 18.0 0.00 0.00 0.00 11 923.8
20260503182014 68 360 12.0 18.0 0.00 0.00 0.00 11 923.8
20260503181551 68 360 12.0 18.0 0.00 0.00 0.00 11 923.9
20260503181012 68 360 11.0 18.0 0.00 0.00 0.00 12 924.0
20260503180513 68 360 11.0 20.0 0.00 0.00 0.00 10 924.1
20260503180049 68 360 13.0 20.0 0.00 0.00 0.00 11 924.2
20260503175512 67 360 8.0 19.0 0.00 0.00 0.00 12 924.1
20260503175015 67 360 12.0 18.0 0.00 0.00 0.00 13 923.9
20260503174551 66 360 2.0 17.0 0.00 0.00 0.00 12 924.1
20260503174019 67 360 13.0 20.0 0.00 0.00 0.00 12 924.0
20260503173515 67 360 13.0 20.0 0.00 0.00 0.00 12 924.0
20260503173048 66 360 5.0 16.0 0.00 0.00 0.00 13 924.2
20260503172517 66 360 7.0 19.0 0.00 0.00 0.00 13 924.2
20260503172013 66 360 15.0 20.0 0.00 0.00 0.00 13 924.3
20260503171608 65 360 15.0 22.0 0.00 0.00 0.00 13 924.0
20260503171013 65 360 9.0 22.0 0.00 0.00 0.00 13 924.2
20260503170513 66 360 13.0 19.0 0.00 0.00 0.00 13 924.0
20260503170103 65 360 4.0 20.0 0.00 0.00 0.00 14 924.3
20260503150513 58 360 13.0 16.0 0.00 0.00 0.00 30 924.8
20260503131018 43 360 4.0 6.0 0.00 0.00 0.00 53 924.7
20260503130514 43 360 3.0 4.0 0.00 0.00 0.00 53 924.7
20260503110512 42 360 5.0 6.0 0.00 0.00 0.00 59 925.1
20260503090509 48 360 13.0 16.0 0.00 0.00 0.00 52 925.4
20260503081538 48 360 2.0 6.0 0.00 0.00 0.00 53 926.0
20260503081010 48 360 3.0 5.0 0.00 0.00 0.00 53 926.1
20260503080517 48 360 2.0 5.0 0.00 0.00 0.00 52 926.1
20260503072512 48 360 0.0 3.0 0.00 0.00 0.00 55 926.3
20260503072012 48 360 0.0 5.0 0.00 0.00 0.00 55 926.3
20260503071549 48 360 2.0 6.0 0.00 0.00 0.00 55 926.3
20260503071013 48 360 4.0 9.0 0.00 0.00 0.00 55 926.2
20260503070511 48 360 5.0 11.0 0.00 0.00 0.00 54 926.1
20260503055012 48 360 10.0 13.0 0.00 0.00 0.00 55 926.2
20260503054555 48 360 8.0 10.0 0.00 0.00 0.00 54 926.3
20260503054010 48 360 4.0 6.0 0.00 0.00 0.00 54 926.4
20260503053512 48 360 4.0 6.0 0.00 0.00 0.00 54 926.3
20260503053040 48 360 5.0 6.0 0.00 0.00 0.00 54 926.4
20260503052513 49 360 5.0 6.0 0.00 0.00 0.00 54 926.3
20260503052010 48 360 2.0 4.0 0.00 0.00 0.00 53 926.6
20260503051534 49 360 1.0 3.0 0.00 0.00 0.00 51 926.6
20260503051011 49 360 1.0 6.0 0.00 0.00 0.00 50 926.5
20260503050513 50 360 2.0 6.0 0.00 0.00 0.00 50 926.5
20260503050036 50 360 4.0 6.0 0.00 0.00 0.00 50 926.6
20260503045510 50 360 4.0 8.0 0.00 0.00 0.00 49 926.5
20260503045012 49 360 6.0 8.0 0.00 0.00 0.00 50 926.6
20260503044548 48 360 4.0 6.0 0.00 0.00 0.00 49 926.5
20260503044011 48 360 4.0 6.0 0.00 0.00 0.00 48 926.6
20260503043512 48 360 4.0 8.0 0.00 0.00 0.00 47 926.6
20260503043044 49 360 5.0 9.0 0.00 0.00 0.00 47 926.6
20260503042511 50 360 5.0 9.0 0.00 0.00 0.00 45 926.7
20260503042013 50 360 7.0 9.0 0.00 0.00 0.00 46 926.7
20260503041535 51 360 5.0 8.0 0.00 0.00 0.00 44 926.8
20260503041011 51 360 3.0 5.0 0.00 0.00 0.00 43 926.8
20260503040512 52 360 2.0 5.0 0.00 0.00 0.00 43 926.8
20260503040040 52 360 4.0 8.0 0.00 0.00 0.00 42 926.8
20260503035509 53 360 6.0 8.0 0.00 0.00 0.00 42 926.7
20260503035013 52 360 6.0 9.0 0.00 0.00 0.00 42 926.7
20260503034539 52 360 6.0 10.0 0.00 0.00 0.00 41 926.8
20260503034011 53 360 8.0 10.0 0.00 0.00 0.00 42 926.7
20260503033515 52 360 8.0 10.0 0.00 0.00 0.00 43 926.6
20260503033034 53 360 5.0 8.0 0.00 0.00 0.00 42 926.6
20260503032510 54 360 5.0 8.0 0.00 0.00 0.00 41 926.7
20260503032018 55 360 2.0 9.0 0.00 0.00 0.00 40 926.7
20260503031537 56 360 6.0 9.0 0.00 0.00 0.00 40 926.5
20260503031013 56 360 4.0 10.0 0.00 0.00 0.00 40 926.8
20260503030509 56 360 5.0 10.0 0.00 0.00 0.00 39 926.8
20260503030032 57 360 2.0 10.0 0.00 0.00 0.00 40 926.8
20260503025512 57 360 7.0 13.0 0.00 0.00 0.00 41 926.5
20260503025010 57 360 8.0 20.0 0.00 0.00 0.00 39 926.6
20260503024540 58 360 13.0 20.0 0.00 0.00 0.00 37 926.7
20260503024014 58 360 11.0 17.0 0.00 0.00 0.00 36 926.8
20260503023514 58 360 8.0 14.0 0.00 0.00 0.00 34 926.8
20260503023041 59 360 1.0 3.0 0.00 0.00 0.00 31 926.5
20260503022513 59 360 2.0 4.0 0.00 0.00 0.00 30 926.6
20260503022015 60 360 3.0 8.0 0.00 0.00 0.00 29 926.3
20260503021544 60 360 4.0 10.0 0.00 0.00 0.00 28 926.3
20260503021014 61 360 6.0 12.0 0.00 0.00 0.00 27 926.2
20260503020513 62 360 8.0 11.0 0.00 0.00 0.00 27 926.2
20260503020038 63 360 5.0 10.0 0.00 0.00 0.00 25 926.2
20260503015513 63 360 6.0 12.0 0.00 0.00 0.00 25 926.2
20260503015011 63 360 6.0 13.0 0.00 0.00 0.00 25 926.1
20260503014533 64 360 8.0 16.0 0.00 0.00 0.00 25 926.2
20260503014014 64 360 12.0 16.0 0.00 0.00 0.00 25 926.0
20260503013513 64 360 9.0 12.0 0.00 0.00 0.00 25 926.0
20260503013041 64 360 8.0 11.0 0.00 0.00 0.00 26 926.1
20260503012514 64 360 9.0 11.0 0.00 0.00 0.00 25 926.2
20260503012013 64 360 9.0 11.0 0.00 0.00 0.00 26 926.3
20260503011538 64 360 9.0 11.0 0.00 0.00 0.00 25 926.2
20260503011012 64 360 5.0 12.0 0.00 0.00 0.00 25 926.3
20260503010511 64 360 8.0 12.0 0.00 0.00 0.00 25 926.3
20260503010040 64 360 7.0 13.0 0.00 0.00 0.00 26 926.4
20260503005514 64 360 7.0 13.0 0.00 0.00 0.00 27 926.3
20260503005012 64 360 5.0 8.0 0.00 0.00 0.00 26 926.4
20260503004535 64 360 4.0 10.0 0.00 0.00 0.00 26 926.4
20260503004014 64 360 5.0 10.0 0.00 0.00 0.00 26 926.5
20260503003514 64 360 6.0 11.0 0.00 0.00 0.00 26 926.6
20260503003033 64 360 5.0 10.0 0.00 0.00 0.00 27 926.5
20260503002512 64 360 7.0 10.0 0.00 0.00 0.00 30 926.6
20260503002013 63 360 5.0 6.0 0.00 0.00 0.00 32 926.7
20260503001533 62 360 3.0 4.0 0.00 0.00 0.00 31 926.7
20260503001012 62 360 2.0 5.0 0.00 0.00 0.00 30 926.8
20260503000515 62 360 3.0 5.0 0.00 0.00 0.00 29 926.8
20260503000056 62 360 2.0 10.0 0.00 0.00 0.00 31 926.9
20260502235512 62 360 3.0 10.0 0.00 0.00 0.00 28 926.8
20260502235012 62 360 3.0 10.0 0.00 0.00 0.00 31 926.9
20260502234537 62 360 5.0 14.0 0.00 0.00 0.00 30 927.0
20260502234014 62 360 4.0 30.0 0.00 0.00 0.00 35 927.1
20260502233514 64 360 17.0 28.0 0.00 0.00 0.00 33 927.0
20260502233039 64 360 9.0 14.0 0.00 0.00 0.00 25 927.2
20260502232514 64 360 11.0 15.0 0.00 0.00 0.00 23 927.2
20260502232013 65 360 11.0 15.0 0.00 0.00 0.00 22 927.3
20260502231536 65 360 1.0 5.0 0.00 0.00 0.00 21 927.4
20260502231010 65 360 2.0 5.0 0.00 0.00 0.00 21 927.2
20260502230512 65 360 1.0 3.0 0.00 0.00 0.00 21 927.3
20260502230036 65 360 1.0 6.0 0.00 0.00 0.00 21 927.1
20260502225515 65 360 3.0 9.0 0.00 0.00 0.00 22 927.1
20260502225015 65 360 5.0 9.0 0.00 0.00 0.00 22 927.2
20260502224535 66 360 3.0 10.0 0.00 0.00 0.00 21 927.2
20260502224019 66 360 4.0 12.0 0.00 0.00 0.00 22 927.3
20260502223513 65 360 3.0 9.0 0.00 0.00 0.00 22 927.3
20260502223039 65 360 4.0 14.0 0.00 0.00 0.00 21 927.4
20260502222513 66 360 4.0 14.0 0.00 0.00 0.00 21 927.6
20260502222012 66 360 8.0 13.0 0.00 0.00 0.00 22 927.3
20260502221535 65 360 5.0 13.0 0.00 0.00 0.00 22 927.6
20260502221013 65 360 11.0 13.0 0.00 0.00 0.00 22 927.5
20260502220514 66 360 8.0 11.0 0.00 0.00 0.00 22 927.7
20260502220043 66 360 1.0 10.0 0.00 0.00 0.00 22 927.9
20260502215515 67 360 8.0 11.0 0.00 0.00 0.00 21 927.9
20260502215016 67 360 3.0 11.0 0.00 0.00 0.00 21 927.9
20260502214537 66 360 5.0 11.0 0.00 0.00 0.00 22 927.9
20260502214015 65 360 5.0 11.0 0.00 0.00 0.00 23 928.1
20260502213515 64 360 2.0 12.0 0.00 0.00 0.00 25 928.2
20260502213042 64 360 7.0 14.0 0.00 0.00 0.00 24 928.5